Погода в Колтовском

Россия / Пензенская область     52°47′53″N   44°15′55″E
темп.,
°C
ветер,
м/с
пор.,
м/с
влажн.,
%
обл.,
%
осадки,
мм/ч
давл.,
гПа
погр.,
м
20 июня, вс
вс2000:00+16зсз01700 0.0 102511
03:00+15сз11760 0.0 102511
06:00+18сз11740 0.0 102558
09:00+23св12650 0.0 1024467
12:00+26в11520 0.0 10241005
15:00+27в11470 0.0 10231349
18:00+27всв12610 0.0 1022423
21:00+21в22730 0.0 102311
21 июня, пн
пн2100:00+19в117954 0.0 102311
03:00+18в22825 0.0 102311
06:00+20в238058 0.0 1023100
09:00+25юв236533 0.0 1023583
12:00+27ююв2252100 0.0 10231232
15:00+27ююв2252100 0.0 10221231
18:00+27в126497 0.0 1022152
21:00+22вюв227497 0.0 102212
22 июня, вт
вт2200:00+20в118187 0.0 102211
03:00+19в228677 0.0 102311
06:00+21всв23825 0.0 1023106
09:00+26в34650 0.0 1023670
12:00+29вюв33510 0.0 10221646
15:00+30вюв234530 0.0 10221868
18:00+28всв226095 0.0 102150
21:00+23всв226971 0.0 102116
23 июня, ср
ср2300:00+21в33755 0.0 102127
03:00+20в228037 0.0 102227
06:00+22в247992 0.0 1022124
09:00+27в33610 0.0 1021450
12:00+30вюв22492 0.0 10211180
15:00+31юв22445 0.0 10211845
18:00+31ююв01560 0.0 10201669
21:00+24всв22680 0.0 102013
24 июня, чт
чт2400:00+22всв33740 0.1 102128
03:00+20в22810 0.5 102124
06:00+23в11720 0.0 102159
09:00+27св22600 0.0 1021503
12:00+30св22490 0.0 10211452
15:00+31ссв12440 0.0 10202032
18:00+30сз125673 0.0 1019113
21:00+25в237333 0.0 102050